Weather History for Atka, AK

Change the Weather History Date:

Wednesday, September 18, 2013

  Actual Average (PADK) Record (PADK)
Temperature  
Mean Temperature 55 °F -  
Max Temperature 62 °F 51 °F 60 °F (1961)
Min Temperature 48 °F 42 °F 33 °F (1982)
Degree Days  
Heating Degree Days 10    
Growing Degree Days 5 (Base 50)    
Moisture  
Dew Point 46 °F    
Average Humidity 77    
Maximum Humidity 94    
Minimum Humidity 39    
Precipitation  
Precipitation 0.00 in - - ()
Sea Level Pressure  
Sea Level Pressure 30.05 in    
Wind  
Wind Speed 9 mph (West)    
Max Wind Speed 18 mph    
Max Gust Speed 21 mph    
Visibility 9 miles    
Events      
Averages and records for this station are not official NWS values.
T = Trace of Precipitation, MM = Missing Value Source: NWS Daily Summary

Daily Weather History Graph

Daily Weather History Graph

Search for Another Location

Airport:

Trip Planner

Search our weather history database for the weather conditions in past years. The results will help you decide how hot, cold, wet, or windy it might be!

Date:

Astronomy

Sep. 18, 2013 Rise Set
Actual Time 8:17 AM HADT 8:43 PM HADT
Civil Twilight 7:43 AM HADT 9:17 PM HADT
Nautical Twilight 7:02 AM HADT 9:57 PM HADT
Astronomical Twilight 6:19 AM HADT 10:40 PM HADT
Moon 8:10 PM HADT (9/18) 7:35 AM HADT (9/18)
Length of Visible Light 13h 34m
Length of Day
12h 26m
Full, 100% of the Moon is Illuminated
Sep 18
Full
Sep 19
Full
Sep 26
Last Quarter
Oct 4
New
Oct 11
First Quarter

Hourly Weather History & Observations

Time (HADT) Temp. Dew Point Humidity Pressure Visibility Wind Dir Wind Speed Gust Speed Precip Events Conditions
12:16 AM 51.8 °F 44.6 °F 76% 30.07 in 10.0 mi SSE 5.8 mph - N/A   Overcast
12:36 AM 51.8 °F 44.6 °F 76% 30.07 in 10.0 mi ESE 5.8 mph - N/A   Overcast
12:56 AM 51.8 °F 44.6 °F 76% 30.08 in 10.0 mi East 5.8 mph - N/A   Overcast
1:16 AM 51.8 °F 46.4 °F 82% 30.09 in 10.0 mi SSE 5.8 mph - N/A   Overcast
1:36 AM 51.8 °F 46.4 °F 82% 30.09 in 10.0 mi South 8.1 mph - N/A   Overcast
1:56 AM 51.8 °F 46.4 °F 82% 30.09 in 10.0 mi SSE 9.2 mph - N/A   Overcast
2:16 AM 51.8 °F 46.4 °F 82% 30.09 in 10.0 mi South 6.9 mph - N/A   Overcast
2:36 AM 51.8 °F 46.4 °F 82% 30.09 in 10.0 mi South 6.9 mph - N/A   Overcast
2:56 AM 51.8 °F 46.4 °F 82% 30.08 in 10.0 mi South 8.1 mph - N/A   Overcast
3:16 AM 51.8 °F 46.4 °F 82% 30.07 in 10.0 mi SSE 5.8 mph - N/A   Overcast
3:36 AM 51.8 °F 48.2 °F 88% 30.06 in 10.0 mi SE 8.1 mph - N/A   Overcast
3:56 AM 50.0 °F 46.4 °F 87% 30.04 in 5.0 mi ENE 9.2 mph - N/A   Overcast
4:16 AM 50.0 °F 46.4 °F 87% 30.04 in 10.0 mi NE 3.5 mph - N/A   Overcast
4:36 AM 51.8 °F 48.2 °F 88% 30.04 in 10.0 mi South 6.9 mph - N/A   Overcast
4:56 AM 51.8 °F 48.2 °F 88% 30.04 in 10.0 mi South 5.8 mph - N/A   Overcast
5:16 AM 51.8 °F 48.2 °F 88% 30.04 in 10.0 mi South 11.5 mph 16.1 mph N/A   Overcast
5:36 AM 51.8 °F 48.2 °F 88% 30.03 in 10.0 mi ESE 4.6 mph - N/A   Overcast
5:56 AM 51.8 °F 48.2 °F 88% 30.03 in 10.0 mi SSE 5.8 mph - N/A   Overcast
6:16 AM 51.8 °F 48.2 °F 88% 30.02 in 10.0 mi South 10.4 mph - N/A   Overcast
6:36 AM 51.8 °F 48.2 °F 88% 30.02 in 10.0 mi South 11.5 mph - N/A   Overcast
6:56 AM 51.8 °F 48.2 °F 88% 30.02 in 9.0 mi South 15.0 mph - N/A   Overcast
7:16 AM 51.8 °F 48.2 °F 88% 30.02 in 10.0 mi SSW 16.1 mph - N/A   Overcast
7:36 AM 51.8 °F 48.2 °F 88% 30.02 in 10.0 mi SW 13.8 mph 19.6 mph N/A   Overcast
7:56 AM 51.8 °F 48.2 °F 88% 30.02 in 7.0 mi WNW 5.8 mph - N/A   Overcast
8:16 AM 51.8 °F 48.2 °F 88% 30.03 in 10.0 mi NW 4.6 mph - N/A   Overcast
8:36 AM 51.8 °F 48.2 °F 88% 30.03 in 10.0 mi Calm Calm - N/A   Overcast
8:56 AM 51.8 °F 48.2 °F 88% 30.02 in 10.0 mi North 4.6 mph - N/A   Overcast
9:16 AM 51.8 °F 48.2 °F 88% 30.02 in 10.0 mi NNW 5.8 mph - N/A   Overcast
9:36 AM 53.6 °F 50.0 °F 88% 30.03 in 10.0 mi Calm Calm - N/A   Overcast
9:56 AM 53.6 °F 50.0 °F 88% 30.03 in 10.0 mi NW 6.9 mph - N/A   Overcast
10:16 AM 53.6 °F 50.0 °F 88% 30.03 in 8.0 mi WNW 10.4 mph - N/A   Overcast
10:36 AM 53.6 °F 48.2 °F 82% 30.04 in 2.0 mi West 10.4 mph - N/A   Overcast
10:56 AM 53.6 °F 50.0 °F 88% 30.04 in 1.8 mi WNW 11.5 mph - N/A   Overcast
11:16 AM 51.8 °F 48.2 °F 88% 30.04 in 1.2 mi NW 13.8 mph - N/A   Overcast
11:36 AM 53.6 °F 50.0 °F 88% 30.04 in 1.8 mi WNW 17.3 mph 20.7 mph N/A   Overcast
11:56 AM 51.8 °F 50.0 °F 94% 30.04 in 1.5 mi WNW 17.3 mph - N/A   Overcast
12:16 PM 51.8 °F 50.0 °F 94% 30.05 in 2.0 mi WNW 18.4 mph - N/A   Overcast
12:36 PM 53.6 °F 50.0 °F 88% 30.05 in 3.0 mi WNW 16.1 mph - N/A   Overcast
12:56 PM 51.8 °F 48.2 °F 88% 30.04 in 2.5 mi WNW 18.4 mph - N/A   Overcast
1:16 PM 53.6 °F 48.2 °F 82% 30.04 in 10.0 mi WNW 16.1 mph - N/A   Scattered Clouds
1:36 PM 55.4 °F 50.0 °F 82% 30.04 in 10.0 mi WNW 12.7 mph 18.4 mph N/A   Clear
1:56 PM 57.2 °F 48.2 °F 72% 30.04 in 10.0 mi NW 12.7 mph - N/A   Clear
2:16 PM 57.2 °F 48.2 °F 72% 30.04 in 10.0 mi WNW 15.0 mph - N/A   Clear
2:36 PM 57.2 °F 48.2 °F 72% 30.05 in 10.0 mi WNW 15.0 mph - N/A   Clear
2:56 PM 57.2 °F 48.2 °F 72% 30.04 in 10.0 mi WNW 13.8 mph - N/A   Clear
3:16 PM 60.8 °F 42.8 °F 52% 30.05 in 10.0 mi WNW 12.7 mph - N/A   Clear
3:36 PM 60.8 °F 39.2 °F 45% 30.04 in 10.0 mi WNW 12.7 mph - N/A   Clear
3:56 PM 62.6 °F 37.4 °F 39% 30.04 in 10.0 mi West 12.7 mph - N/A   Clear
4:16 PM 62.6 °F 37.4 °F 39% 30.04 in 10.0 mi WNW 11.5 mph - N/A   Clear
4:36 PM 62.6 °F 37.4 °F 39% 30.03 in 10.0 mi WNW 11.5 mph - N/A   Clear
4:56 PM 62.6 °F 37.4 °F 39% 30.04 in 10.0 mi WNW 15.0 mph - N/A   Clear
5:16 PM 62.6 °F 39.2 °F 42% 30.04 in 10.0 mi WNW 15.0 mph - N/A   Clear
5:36 PM 59.0 °F 42.8 °F 55% 30.04 in 10.0 mi West 17.3 mph - N/A   Clear
5:56 PM 57.2 °F 42.8 °F 59% 30.05 in 10.0 mi West 16.1 mph - N/A   Clear
6:16 PM 55.4 °F 44.6 °F 67% 30.05 in 10.0 mi WNW 13.8 mph - N/A   Clear
6:36 PM 53.6 °F 42.8 °F 67% 30.05 in 10.0 mi WNW 17.3 mph - N/A   Clear
6:56 PM 53.6 °F 42.8 °F 67% 30.05 in 10.0 mi West 17.3 mph - N/A   Clear
7:16 PM 53.6 °F 42.8 °F 67% 30.06 in 10.0 mi West 17.3 mph - N/A   Clear
7:36 PM 51.8 °F 42.8 °F 71% 30.06 in 10.0 mi West 16.1 mph - N/A   Clear
7:56 PM 51.8 °F 42.8 °F 71% 30.06 in 10.0 mi West 15.0 mph - N/A   Clear
8:16 PM 50.0 °F 42.8 °F 76% 30.07 in 10.0 mi WNW 9.2 mph - N/A   Clear
8:36 PM 50.0 °F 42.8 °F 76% 30.06 in 10.0 mi West 12.7 mph - N/A   Clear
8:56 PM 50.0 °F 42.8 °F 76% 30.07 in 10.0 mi West 11.5 mph - N/A   Clear
9:16 PM 50.0 °F 42.8 °F 76% 30.07 in 10.0 mi West 15.0 mph - N/A   Clear
9:36 PM 48.2 °F 42.8 °F 82% 30.07 in 10.0 mi West 16.1 mph - N/A   Clear
9:56 PM 50.0 °F 42.8 °F 76% 30.07 in 10.0 mi West 13.8 mph - N/A   Clear
10:16 PM 50.0 °F 42.8 °F 76% 30.06 in 10.0 mi SW 5.8 mph - N/A   Clear
10:36 PM 50.0 °F 42.8 °F 76% 30.06 in 10.0 mi NE 6.9 mph - N/A   Clear
10:56 PM 48.2 °F 42.8 °F 82% 30.06 in 10.0 mi NE 5.8 mph - N/A   Clear
11:16 PM 50.0 °F 42.8 °F 76% 30.07 in 10.0 mi NNW 3.5 mph - N/A   Clear
11:36 PM 48.2 °F 42.8 °F 82% 30.07 in 10.0 mi NW 9.2 mph - N/A   Clear
11:56 PM 48.2 °F 44.6 °F 87% 30.08 in 10.0 mi WNW 12.7 mph 18.4 mph N/A   Clear